Rensselaer, IN

6:23 AM CST on December 12, 2017 (GMT -0600)
Jasper County

Weather History for KRZL - February, 2013

Change the Weather History Date:

Thursday, February 21, 2013

  Actual Average (KIKK) Record (KIKK)
Temperature  
Mean Temperature 26 °F -  
Max Temperature 28 °F 41 °F 65 °F (2017)
Min Temperature 23 °F 23 °F 5 °F (1988)
Degree Days  
Heating Degree Days 40    
Moisture  
Dew Point 22 °F    
Average Humidity 82    
Maximum Humidity 93    
Minimum Humidity 74    
Precipitation  
Precipitation 0.01 in - - ()
Sea Level Pressure  
Sea Level Pressure 30.22 in    
Wind  
Wind Speed 7 mph (ENE)    
Max Wind Speed 28 mph    
Max Gust Speed 36 mph    
Visibility 9 miles    
Events Snow    
Averages and records for this station are not official NWS values.
T = Trace of Precipitation, MM = Missing Value Source: NWS Daily Summary

Daily Weather History Graph

Daily Weather History Graph

Search for Another Location

Airport or City:

Trip Planner

Search our weather history database for the weather conditions in past years. The results will help you decide how hot, cold, wet, or windy it might be!

Date:

Astronomy

Feb. 21, 2013 Rise Set
Actual Time 6:34 AM CST 5:30 PM CST
Civil Twilight 6:06 AM CST 5:58 PM CST
Nautical Twilight 5:34 AM CST 6:30 PM CST
Astronomical Twilight 5:02 AM CST 7:02 PM CST
Moon 1:44 PM CST (2/21) 3:39 AM CST (2/21)
Length of Visible Light 11h 52m
Length of Day
10h 56m
Waxing Gibbous, 84% of the Moon is Illuminated
Feb 21
Waxing Gibbous
Feb 25
Full
Mar 4
Last Quarter
Mar 11
New
Mar 19
First Quarter

Hourly Weather History & Observations

Time (CST) Temp. Windchill Dew Point Humidity Pressure Visibility Wind Dir Wind Speed Gust Speed Precip Events Conditions
12:15 AM 23.0 °F - 19.4 °F 86% 30.34 in 10.0 mi Calm Calm - N/A   Overcast
12:35 AM 24.8 °F - 19.4 °F 80% 30.34 in 10.0 mi Calm Calm - N/A   Overcast
12:55 AM 24.8 °F - 19.4 °F 80% 30.34 in 10.0 mi Calm Calm - N/A   Overcast
1:15 AM 24.8 °F - 19.4 °F 80% 30.34 in 10.0 mi Calm Calm - N/A   Overcast
1:35 AM 24.8 °F - 19.4 °F 80% 30.33 in 10.0 mi Calm Calm - N/A   Overcast
1:55 AM 24.8 °F - 19.4 °F 80% 30.33 in 10.0 mi Calm Calm - N/A   Overcast
2:15 AM 24.8 °F - 21.2 °F 86% 30.33 in 10.0 mi Calm Calm - N/A   Overcast
2:35 AM 24.8 °F - 21.2 °F 86% 30.32 in 10.0 mi Calm Calm - N/A   Overcast
2:55 AM 24.8 °F - 21.2 °F 86% 30.32 in 10.0 mi Calm Calm - N/A   Overcast
3:15 AM 24.8 °F - 21.2 °F 86% 30.31 in 10.0 mi Calm Calm - N/A   Overcast
3:35 AM 24.8 °F - 21.2 °F 86% 30.31 in 10.0 mi Calm Calm - N/A   Overcast
3:55 AM 23.0 °F 17.0 °F 21.2 °F 93% 30.32 in 10.0 mi NW 4.6 mph - N/A   Overcast
4:15 AM 23.0 °F 17.0 °F 21.2 °F 93% 30.32 in 10.0 mi NW 4.6 mph - N/A   Overcast
4:35 AM 23.0 °F 15.8 °F 21.2 °F 93% 30.33 in 10.0 mi NW 5.8 mph - N/A   Overcast
4:55 AM 23.0 °F 15.8 °F 19.4 °F 86% 30.34 in 10.0 mi WNW 5.8 mph - N/A   Overcast
5:15 AM 24.8 °F 17.9 °F 19.4 °F 80% 30.34 in 10.0 mi NW 5.8 mph - N/A   Overcast
5:35 AM 24.8 °F - 19.4 °F 80% 30.35 in 10.0 mi Calm Calm - N/A   Overcast
6:15 AM 24.8 °F - 21.2 °F 86% 30.31 in 10.0 mi Calm Calm - N/A   Overcast
6:35 AM 24.8 °F - 21.2 °F 86% 30.33 in 10.0 mi Calm Calm - N/A   Overcast
6:55 AM 24.8 °F 20.5 °F 21.2 °F 86% 30.35 in 10.0 mi WSW 3.5 mph - N/A   Overcast
7:15 AM 24.8 °F - 21.2 °F 86% 30.34 in 10.0 mi Calm Calm - N/A   Overcast
7:35 AM 26.6 °F - 21.2 °F 80% 30.33 in 10.0 mi Calm Calm - N/A   Overcast
7:55 AM 26.6 °F 20.0 °F 21.2 °F 80% 30.32 in 10.0 mi NNE 5.8 mph - N/A   Overcast
8:15 AM 26.6 °F 21.2 °F 21.2 °F 80% 30.33 in 10.0 mi NNE 4.6 mph - N/A   Overcast
8:35 AM 26.6 °F 19.1 °F 23.0 °F 86% 30.32 in 10.0 mi NE 6.9 mph - N/A   Overcast
8:55 AM 28.4 °F 19.7 °F 23.0 °F 80% 30.32 in 10.0 mi ENE 9.2 mph - N/A   Overcast
9:15 AM 28.4 °F 19.1 °F 23.0 °F 80% 30.32 in 10.0 mi ENE 10.4 mph - N/A   Overcast
9:35 AM 28.4 °F 22.2 °F 23.0 °F 80% 30.34 in 10.0 mi NNE 5.8 mph 9.2 mph N/A   Overcast
9:55 AM 28.4 °F 19.7 °F 23.0 °F 80% 30.34 in 10.0 mi ENE 9.2 mph - N/A   Overcast
10:15 AM 28.4 °F 21.2 °F 23.0 °F 80% 30.33 in 10.0 mi ENE 6.9 mph - N/A   Overcast
10:35 AM 28.4 °F 18.5 °F 23.0 °F 80% 30.33 in 10.0 mi NE 11.5 mph - N/A   Overcast
10:55 AM 28.4 °F 20.4 °F 23.0 °F 80% 30.34 in 10.0 mi ENE 8.1 mph - N/A   Overcast
11:15 AM 28.4 °F 17.5 °F 23.0 °F 80% 30.30 in 10.0 mi NE 13.8 mph - N/A   Overcast
11:35 AM 28.4 °F 17.5 °F 23.0 °F 80% 30.28 in 10.0 mi ENE 13.8 mph - N/A   Overcast
12:15 PM 28.4 °F 18.5 °F 23.0 °F 80% 30.28 in 10.0 mi East 11.5 mph - N/A   Overcast
12:35 PM 28.4 °F 16.6 °F 21.2 °F 74% 30.25 in 10.0 mi ENE 16.1 mph - N/A   Overcast
12:55 PM 28.4 °F 16.2 °F 21.2 °F 74% 30.22 in 10.0 mi NE 17.3 mph 21.9 mph N/A   Overcast
1:15 PM 28.4 °F 16.6 °F 21.2 °F 74% 30.19 in 10.0 mi ENE 16.1 mph 24.2 mph N/A   Overcast
1:35 PM 28.4 °F 16.6 °F 21.2 °F 74% 30.17 in 10.0 mi ENE 16.1 mph - N/A   Mostly Cloudy
1:55 PM 28.4 °F 16.6 °F 21.2 °F 74% 30.19 in 10.0 mi ENE 16.1 mph - N/A   Mostly Cloudy
2:15 PM 28.4 °F 17.5 °F 21.2 °F 74% 30.20 in 10.0 mi ENE 13.8 mph - N/A   Mostly Cloudy
2:35 PM 28.4 °F 17.0 °F 21.2 °F 74% 30.21 in 10.0 mi East 15.0 mph - N/A   Mostly Cloudy
2:55 PM 28.4 °F 18.0 °F 21.2 °F 74% 30.24 in 10.0 mi East 12.7 mph - N/A   Scattered Clouds
3:15 PM 28.4 °F 18.0 °F 21.2 °F 74% 30.23 in 10.0 mi East 12.7 mph - N/A   Overcast
3:35 PM 28.4 °F 18.0 °F 21.2 °F 74% 30.22 in 10.0 mi East 12.7 mph - N/A   Overcast
3:55 PM 28.4 °F 18.0 °F 21.2 °F 74% 30.21 in 10.0 mi East 12.7 mph - N/A   Scattered Clouds
4:15 PM 28.4 °F 16.6 °F 21.2 °F 74% 30.19 in 10.0 mi East 16.1 mph - N/A   Mostly Cloudy
4:35 PM 28.4 °F 16.6 °F 21.2 °F 74% 30.16 in 10.0 mi East 16.1 mph - N/A   Overcast
4:55 PM 28.4 °F 16.6 °F 21.2 °F 74% 30.16 in 10.0 mi East 16.1 mph 23.0 mph N/A   Overcast
5:15 PM 28.4 °F 16.2 °F 21.2 °F 74% 30.16 in 10.0 mi East 17.3 mph 25.3 mph N/A   Overcast
5:35 PM 28.4 °F 16.2 °F 21.2 °F 74% 30.17 in 10.0 mi East 17.3 mph - N/A   Mostly Cloudy
5:55 PM 28.4 °F 18.5 °F 21.2 °F 74% 30.16 in 10.0 mi East 11.5 mph 19.6 mph N/A   Mostly Cloudy
6:15 PM 28.4 °F 17.5 °F 21.2 °F 74% 30.15 in 10.0 mi East 13.8 mph - N/A   Mostly Cloudy
6:35 PM 28.4 °F 16.6 °F 21.2 °F 74% 30.15 in 10.0 mi East 16.1 mph 23.0 mph N/A   Mostly Cloudy
6:55 PM 28.4 °F 16.2 °F 21.2 °F 74% 30.14 in 10.0 mi East 17.3 mph 21.9 mph N/A   Overcast
7:15 PM 28.4 °F 16.6 °F 21.2 °F 74% 30.13 in 10.0 mi East 16.1 mph 23.0 mph N/A   Overcast
7:35 PM 28.4 °F 16.6 °F 21.2 °F 74% 30.13 in 10.0 mi East 16.1 mph 25.3 mph N/A   Overcast
7:55 PM 28.4 °F 16.2 °F 21.2 °F 74% 30.11 in 5.0 mi East 17.3 mph 23.0 mph N/A Snow Light Snow
8:15 PM 28.4 °F 15.8 °F 23.0 °F 80% 30.10 in 4.0 mi East 18.4 mph 24.2 mph N/A Snow Light Snow
8:35 PM 26.6 °F 12.4 °F 24.8 °F 93% 30.07 in 1.2 mi East 21.9 mph 25.3 mph N/A Snow Light Snow
8:55 PM 26.6 °F 10.8 °F 24.8 °F 93% 30.04 in 1.0 mi East 27.6 mph 34.5 mph N/A Snow Snow
9:15 PM 26.6 °F 12.0 °F 24.8 °F 93% 30.03 in 1.0 mi East 23.0 mph 35.7 mph N/A Snow Snow
9:35 PM 26.6 °F 11.7 °F 24.8 °F 93% 30.01 in 4.0 mi East 24.2 mph 33.4 mph N/A Snow Light Snow
9:55 PM 26.6 °F 11.1 °F 24.8 °F 93% 29.99 in 5.0 mi East 26.5 mph 33.4 mph N/A Snow Light Snow
10:15 PM 26.6 °F 12.7 °F 24.8 °F 93% 29.99 in 4.0 mi East 20.7 mph 31.1 mph N/A Snow Light Snow
10:35 PM 26.6 °F 12.4 °F 24.8 °F 93% 29.99 in 4.0 mi East 21.9 mph 28.8 mph N/A Snow Light Snow
10:55 PM 26.6 °F 11.4 °F 24.8 °F 93% 29.97 in 3.0 mi East 25.3 mph 29.9 mph N/A Snow Light Snow
11:15 PM 26.6 °F 12.0 °F 24.8 °F 93% 29.99 in 4.0 mi East 23.0 mph 28.8 mph 0.01 in Snow Light Snow
11:35 PM 26.6 °F 13.4 °F 24.8 °F 93% 29.97 in 2.0 mi East 18.4 mph 27.6 mph 0.01 in Snow Light Snow
11:55 PM 26.6 °F 13.1 °F 24.8 °F 93% 29.95 in 3.0 mi East 19.6 mph 25.3 mph 0.01 in Snow Light Snow